Location: Antioch
(38.0049°N, 121.8058°W)
Time: 05:14:22
(UTC+00:00)

CZ-4 R/B - Pass Details

Date: 11 February 2026
Orbit: 676 x 743 km, 98.7° (Epoch: 5 March)

Event Time Altitude Azimuth Distance (km) Brightness Sun altitude
Rises 13:10:20 0° 17° (NNE) 3,187 7.4 -22.4°
Reaches altitude 10° 13:12:40 10° 20° (NNE) 2,261 6.7 -22.0°
Maximum altitude 13:17:35 62° 101° (ESE) 834 4.4 -21.0°
Drops below altitude 10° 13:22:28 10° 183° (S) 2,237 6.4 -20.0°
Sets 13:24:46 0° 186° (S) 3,150 7.2 -19.6°
